• En España
  • Lista de países
  • Para 7 días
  • Temperatura del agua
  • Mapa Satelital
  • El tiempo en el mapa
  • Informadores
  • user-avatar
    Iniciar sesión

    Tiempo cada hora Salta

    Hoy, 14 Agosto, Martes

    Tiempo Temperatura Precipitaciones Viento Presión Humedad
    00:00 +19°C° 0,3 mm 1 mps 652 mmHg 60%
    01:00 +18°C° 0,3 mm 1 mps 653 mmHg 63%
    02:00 +18°C° 0,3 mm 1 mps 653 mmHg 66%
    03:00 +16°C° 0,2 mm 1 mps 653 mmHg 68%
    04:00 +16°C° 0,2 mm 2 mps 654 mmHg 71%
    05:00 +15°C° 0,2 mm 2 mps 654 mmHg 74%
    06:00 +15°C° 0 mm 2 mps 655 mmHg 74%
    07:00 +15°C° 0 mm 2 mps 655 mmHg 74%
    08:00 +15°C° 0 mm 2 mps 656 mmHg 74%
    09:00 +16°C° 0 mm 2 mps 656 mmHg 69%
    10:00 +16°C° 0 mm 3 mps 656 mmHg 64%
    11:00 +17°C° 0 mm 3 mps 657 mmHg 58%
    12:00 +18°C° 0 mm 3 mps 656 mmHg 54%
    13:00 +18°C° 0 mm 3 mps 656 mmHg 49%
    14:00 +19°C° 0 mm 3 mps 655 mmHg 45%
    15:00 +19°C° 0,1 mm 3 mps 655 mmHg 45%
    16:00 +18°C° 0,1 mm 3 mps 655 mmHg 46%
    17:00 +17°C° 0,1 mm 3 mps 654 mmHg 46%
    18:00 +16°C° 0 mm 2 mps 654 mmHg 50%
    19:00 +15°C° 0 mm 2 mps 654 mmHg 53%
    20:00 +13°C° 0 mm 1 mps 655 mmHg 56%
    21:00 +13°C° 0 mm 1 mps 655 mmHg 57%
    22:00 +12°C° 0 mm 1 mps 655 mmHg 57%
    23:00 +12°C° 0 mm 1 mps 655 mmHg 57%

    Mañana, 15 Agosto, Miércoles

    Tiempo Temperatura Precipitaciones Viento Presión Humedad
    00:00 +12°C° 0 mm 1 mps 654 mmHg 57%
    01:00 +11°C° 0 mm 1 mps 654 mmHg 57%
    02:00 +11°C° 0 mm 1 mps 654 mmHg 57%
    03:00 +11°C° 0 mm 1 mps 653 mmHg 56%
    04:00 +10°C° 0 mm 1 mps 653 mmHg 55%
    05:00 +10°C° 0 mm 1 mps 653 mmHg 54%
    06:00 +11°C° 0 mm 1 mps 654 mmHg 51%
    07:00 +12°C° 0 mm 1 mps 654 mmHg 47%
    08:00 +13°C° 0 mm 1 mps 655 mmHg 43%
    09:00 +15°C° 0 mm 1 mps 656 mmHg 39%
    10:00 +18°C° 0 mm 1 mps 656 mmHg 35%
    11:00 +19°C° 0 mm 2 mps 657 mmHg 31%
    12:00 +20°C° 0 mm 2 mps 656 mmHg 31%
    13:00 +21°C° 0 mm 2 mps 656 mmHg 30%
    14:00 +22°C° 0 mm 3 mps 655 mmHg 29%
    15:00 +21°C° 0 mm 3 mps 655 mmHg 31%
    16:00 +20°C° 0 mm 3 mps 654 mmHg 33%
    17:00 +20°C° 0 mm 2 mps 654 mmHg 35%
    18:00 +18°C° 0 mm 2 mps 654 mmHg 40%
    19:00 +16°C° 0 mm 1 mps 654 mmHg 45%
    20:00 +14°C° 0 mm 1 mps 654 mmHg 50%
    21:00 +14°C° 0 mm 1 mps 654 mmHg 50%
    22:00 +13°C° 0 mm 1 mps 654 mmHg 50%
    23:00 +13°C° 0 mm 1 mps 654 mmHg 50%

    Pasado mañana, 16 Agosto, Jueves

    Tiempo Temperatura Precipitaciones Viento Presión Humedad
    00:00 +12°C° 0 mm 1 mps 654 mmHg 50%
    01:00 +12°C° 0 mm 1 mps 653 mmHg 50%
    02:00 +12°C° 0 mm 1 mps 653 mmHg 50%
    03:00 +11°C° 0 mm 1 mps 653 mmHg 50%
    04:00 +11°C° 0 mm 1 mps 652 mmHg 50%
    05:00 +11°C° 0 mm 1 mps 652 mmHg 50%
    06:00 +12°C° 0 mm 1 mps 653 mmHg 47%
    07:00 +13°C° 0 mm 1 mps 654 mmHg 45%
    08:00 +14°C° 0 mm 1 mps 654 mmHg 42%
    09:00 +16°C° 0 mm 1 mps 655 mmHg 37%
    10:00 +19°C° 0 mm 1 mps 656 mmHg 32%
    11:00 +21°C° 0 mm 2 mps 657 mmHg 27%
    12:00 +23°C° 0 mm 2 mps 656 mmHg 26%
    13:00 +24°C° 0 mm 2 mps 656 mmHg 25%
    14:00 +24°C° 0 mm 2 mps 655 mmHg 24%
    15:00 +24°C° 0 mm 2 mps 655 mmHg 26%
    16:00 +23°C° 0 mm 2 mps 654 mmHg 28%
    17:00 +23°C° 0 mm 2 mps 654 mmHg 30%
    18:00 +20°C° 0 mm 2 mps 654 mmHg 36%
    19:00 +19°C° 0 mm 1 mps 654 mmHg 41%
    20:00 +16°C° 0 mm 1 mps 654 mmHg 47%
    21:00 +15°C° 0 mm 1 mps 654 mmHg 49%
    22:00 +15°C° 0 mm 1 mps 654 mmHg 50%
    23:00 +14°C° 0 mm 1 mps 654 mmHg 51%

    17 Agosto, Viernes

    Tiempo Temperatura Precipitaciones Viento Presión Humedad
    00:00 +14°C° 0 mm 1 mps 653 mmHg 51%
    01:00 +13°C° 0 mm 1 mps 653 mmHg 50%
    02:00 +13°C° 0 mm 1 mps 652 mmHg 50%
    03:00 +13°C° 0 mm 1 mps 652 mmHg 49%
    04:00 +13°C° 0 mm 1 mps 652 mmHg 49%
    05:00 +12°C° 0 mm 1 mps 652 mmHg 48%
    06:00 +13°C° 0 mm 1 mps 652 mmHg 46%
    07:00 +14°C° 0 mm 1 mps 653 mmHg 43%
    08:00 +15°C° 0 mm 1 mps 654 mmHg 41%
    09:00 +19°C° 0 mm 1 mps 654 mmHg 36%
    10:00 +20°C° 0 mm 2 mps 654 mmHg 32%
    11:00 +24°C° 0 mm 2 mps 655 mmHg 27%
    12:00 +25°C° 0 mm 2 mps 654 mmHg 26%
    13:00 +26°C° 0 mm 2 mps 654 mmHg 25%
    14:00 +27°C° 0 mm 2 mps 653 mmHg 23%
    15:00 +26°C° 0 mm 2 mps 653 mmHg 26%
    16:00 +26°C° 0 mm 2 mps 652 mmHg 28%
    17:00 +25°C° 0 mm 2 mps 652 mmHg 30%
    18:00 +23°C° 0 mm 2 mps 652 mmHg 37%
    19:00 +20°C° 0 mm 2 mps 651 mmHg 44%
    20:00 +19°C° 0 mm 1 mps 651 mmHg 50%
    21:00 +18°C° 0 mm 1 mps 651 mmHg 52%
    22:00 +18°C° 0 mm 1 mps 651 mmHg 53%
    23:00 +16°C° 0 mm 1 mps 651 mmHg 55%

    18 Agosto, Sábado

    Tiempo Temperatura Precipitaciones Viento Presión Humedad
    00:00 +16°C° 0 mm 1 mps 651 mmHg 55%
    01:00 +16°C° 0 mm 1 mps 651 mmHg 54%
    02:00 +16°C° 0 mm 1 mps 650 mmHg 54%
    03:00 +16°C° 0 mm 1 mps 650 mmHg 53%
    04:00 +16°C° 0 mm 2 mps 650 mmHg 52%
    05:00 +16°C° 0 mm 2 mps 650 mmHg 51%
    06:00 +16°C° 0 mm 1 mps 650 mmHg 48%
    07:00 +18°C° 0 mm 1 mps 651 mmHg 45%
    08:00 +19°C° 0 mm 1 mps 652 mmHg 42%
    09:00 +22°C° 0 mm 1 mps 653 mmHg 38%
    10:00 +25°C° 0 mm 2 mps 653 mmHg 34%
    11:00 +27°C° 0 mm 2 mps 654 mmHg 29%
    12:00 +28°C° 0 mm 2 mps 654 mmHg 29%
    13:00 +28°C° 0 mm 2 mps 653 mmHg 29%
    14:00 +29°C° 0 mm 2 mps 653 mmHg 28%
    15:00 +28°C° 0 mm 2 mps 652 mmHg 32%
    16:00 +28°C° 0 mm 2 mps 652 mmHg 35%
    17:00 +27°C° 0 mm 3 mps 652 mmHg 39%
    18:00 +25°C° 0 mm 2 mps 652 mmHg 47%
    19:00 +23°C° 0 mm 2 mps 653 mmHg 55%
    20:00 +21°C° 0 mm 1 mps 653 mmHg 63%
    21:00 +21°C° 0,2 mm 1 mps 653 mmHg 65%
    22:00 +20°C° 0,2 mm 1 mps 653 mmHg 67%
    23:00 +20°C° 0,2 mm 1 mps 654 mmHg 69%

    19 Agosto, Domingo

    Tiempo Temperatura Precipitaciones Viento Presión Humedad
    00:00 +19°C° 0 mm 1 mps 654 mmHg 70%
    01:00 +19°C° 0 mm 1 mps 653 mmHg 71%
    02:00 +18°C° 0 mm 1 mps 653 mmHg 73%
    03:00 +17°C° 0 mm 2 mps 653 mmHg 74%
    04:00 +16°C° 0 mm 2 mps 653 mmHg 75%
    05:00 +16°C° 0 mm 2 mps 653 mmHg 76%
    06:00 +16°C° 0 mm 2 mps 654 mmHg 75%
    07:00 +16°C° 0 mm 2 mps 655 mmHg 75%
    08:00 +16°C° 0 mm 2 mps 655 mmHg 75%
    09:00 +16°C° 0,1 mm 2 mps 655 mmHg 74%
    10:00 +16°C° 0,1 mm 3 mps 656 mmHg 73%
    11:00 +16°C° 0,1 mm 3 mps 656 mmHg 72%
    12:00 +16°C° 0 mm 3 mps 655 mmHg 72%
    13:00 +16°C° 0 mm 3 mps 654 mmHg 72%
    14:00 +16°C° 0 mm 3 mps 654 mmHg 72%
    15:00 +14°C° 0 mm 3 mps 654 mmHg 72%
    16:00 +14°C° 0 mm 3 mps 654 mmHg 73%
    17:00 +15°C° 0 mm 2 mps 654 mmHg 73%
    18:00 +14°C° 0 mm 2 mps 654 mmHg 76%
    19:00 +14°C° 0 mm 2 mps 655 mmHg 78%
    20:00 +13°C° 0 mm 2 mps 655 mmHg 81%
    21:00 +13°C° 0 mm 1 mps 656 mmHg 82%
    22:00 +12°C° 0 mm 1 mps 656 mmHg 82%
    23:00 +12°C° 0 mm 1 mps 656 mmHg 83%
    Mostrar más